{"data":{"norad_id":57291,"intl_designator":"2023-096B","name":"STARLINK-30239","alt_names":[],"object_type":"PAYLOAD","status":"ACTIVE","operator":null,"country":"US","launch_date":"2023-07-10","launch_site_code":"AFETR","launch_vehicle":null,"mission":null,"orbit_class":"UNKNOWN","rcs_meters":null,"size_class":null,"mass_kg":null,"dimensions":null,"purposes":["comms"],"wikipedia_slug":null,"has_3d_model":false,"image_url":null,"decayed_at":null,"tle_current":{"epoch":"2026-05-25T00:43:09.126336Z","epoch_age_seconds":82773,"freshness":"FRESH","line1":"1 57291U 23096B   26145.02996674  .00000717  00000+0  35566-4 0  9998","line2":"2 57291  43.0011 151.9645 0001561 267.6260  92.4412 15.27578689159294","mean_motion":15.27578689,"eccentricity":0.0001561,"inclination_deg":43.0011,"raan_deg":151.9645,"arg_perigee_deg":267.626,"mean_anomaly_deg":92.4412,"bstar":3.5566e-5,"rev_number":15929,"period_min":94.266829615348,"perigee_km":481.98198988571,"apogee_km":484.12405341047,"semimajor_km":6861.1900216481,"source":"CELESTRAK","updated_at":"2026-05-25T13:38:18.283127Z"}}}